High Glow — 3EAV5 — position and weather

sailwx.info

Track history (hours):
 
Tides and Currents Weather Stations Pressure Air Temp Water Temp Dewpoint Dewpoint Depression Visibility Wind Speed Wind Dir Waves Ship Positions

High Glow

Last reported at 2017-Oct-16 02:02 UTC. Time now 2017-Oct-17 15:17 UTC.
Position N 29°43' W 095°14'.

Length 180 m; draft 7.6 m.

Type: Ship. MMSI: 371179000.

Date/timePositionNaut miles runAvg speedWind from/ knotsBaromVisibWave heightAir tempDewpointWater temp
2017-Oct-16 02:02N 29°43' W 095°14'0 0.0
2017-Oct-16 02:00N 29°43' W 095°14'1 1.2
2017-Oct-16 01:29N 29°43' W 095°14'2 4.4
2017-Oct-16 01:00N 29°44' W 095°12'3 6.1
2017-Oct-16 00:30N 29°44' W 095°09'3 7.0
2017-Oct-16 00:01N 29°46' W 095°05'4 8.4
2017-Oct-15 23:30N 29°43' W 095°01'4 8.8
2017-Oct-15 23:00N 29°40' W 094°58'611.6
2017-Oct-15 22:30N 29°34' W 094°56'612.1
2017-Oct-15 22:00N 29°29' W 094°52'612.4
2017-Oct-15 21:30N 29°24' W 094°49'  
2017-Oct-11 00:00N 25°34' W 079°29'813.7
2017-Oct-10 23:25N 25°42' W 079°28'613.7
2017-Oct-10 23:00N 25°48' W 079°28'713.9
2017-Oct-10 22:30N 25°55' W 079°28'714.2
2017-Oct-10 22:00N 26°02' W 079°28'714.0
2017-Oct-10 21:30N 26°09' W 079°26'714.1
2017-Oct-10 21:00N 26°16' W 079°26'  
2017-Oct-08 07:04N 31°22' W 079°46'412.0
2017-Oct-08 06:44N 31°25' W 079°48'313.3
2017-Oct-08 06:30N 31°28' W 079°50'713.3
2017-Oct-08 05:57N 31°34' W 079°55'913.7
2017-Oct-08 05:18N 31°38' W 080°05'714.0
2017-Oct-08 04:46N 31°41' W 080°12'414.1
2017-Oct-08 04:30N 31°43' W 080°16'714.0
2017-Oct-08 04:00N 31°47' W 080°23'713.9
2017-Oct-08 03:30N 31°51' W 080°30'713.8
2017-Oct-08 03:00N 31°55' W 080°36'612.4
2017-Oct-08 02:30N 31°57' W 080°43'611.1
2017-Oct-08 02:00N 32°01' W 080°48'510.8
2017-Oct-08 01:30N 32°02' W 080°54'510.1
2017-Oct-08 01:00N 32°05' W 080°59'3 6.6
2017-Oct-08 00:30N 32°05' W 081°03'3 6.2
2017-Oct-08 00:00N 32°06' W 081°07'0 0.6
2017-Oct-07 23:30N 32°06' W 081°07'1 1.3
2017-Oct-07 23:00N 32°06' W 081°06'0 0.0
2017-Oct-07 22:30N 32°06' W 081°06'0 0.0
2017-Oct-07 21:58N 32°06' W 081°06'0 0.0
2017-Oct-07 21:22N 32°06' W 081°06'0 0.0
2017-Oct-07 20:58N 32°06' W 081°06'0 0.0
2017-Oct-07 20:28N 32°06' W 081°06'0 0.0
2017-Oct-07 19:46N 32°06' W 081°06'0 0.0
2017-Oct-07 19:28N 32°06' W 081°06'0 0.0
2017-Oct-07 18:58N 32°06' W 081°06'0 0.0
2017-Oct-07 18:28N 32°06' W 081°06'0 0.0
2017-Oct-07 17:58N 32°06' W 081°06'0 0.0
2017-Oct-07 17:22N 32°06' W 081°06'0 0.0
2017-Oct-07 16:58N 32°06' W 081°06'0 0.0
2017-Oct-07 16:22N 32°06' W 081°06'0 0.0
2017-Oct-07 15:58N 32°06' W 081°06'0 0.0
2017-Oct-07 15:28N 32°06' W 081°06'0 0.0
2017-Oct-07 14:58N 32°06' W 081°06'0 0.0
2017-Oct-07 14:28N 32°06' W 081°06'0 0.0
2017-Oct-07 13:58N 32°06' W 081°06'0 0.0
2017-Oct-07 13:22N 32°06' W 081°06'0 0.0
2017-Oct-07 12:58N 32°06' W 081°06'0 0.0
2017-Oct-07 12:04N 32°06' W 081°06'0 0.0
2017-Oct-07 11:58N 32°06' W 081°06'0 0.0
2017-Oct-07 11:28N 32°06' W 081°06'0 0.0
2017-Oct-07 10:58N 32°06' W 081°06'0 0.0
2017-Oct-07 10:28N 32°06' W 081°06'0 0.0
2017-Oct-07 09:52N 32°06' W 081°06'0 0.0
2017-Oct-07 09:22N 32°06' W 081°06'0 0.0
2017-Oct-07 08:58N 32°06' W 081°06'0 0.0
2017-Oct-07 08:28N 32°06' W 081°06'0 0.0
2017-Oct-07 07:58N 32°06' W 081°06'0 0.0
2017-Oct-07 07:28N 32°06' W 081°06'0 0.0
2017-Oct-07 06:58N 32°06' W 081°06'0 0.0
2017-Oct-07 06:28N 32°06' W 081°06'0 0.0
2017-Oct-07 05:58N 32°06' W 081°06'0 0.0
2017-Oct-07 05:22N 32°06' W 081°06'0 0.0
2017-Oct-07 04:58N 32°06' W 081°06'0 0.0
2017-Oct-07 04:28N 32°06' W 081°06'0 0.0
2017-Oct-07 03:58N 32°06' W 081°06'2 3.4
2017-Oct-07 03:30N 32°05' W 081°05'4 7.3
2017-Oct-07 03:00N 32°06' W 081°01'611.7
2017-Oct-07 02:30N 32°02' W 080°55'612.3
2017-Oct-07 02:00N 32°01' W 080°48'612.5
2017-Oct-07 01:30N 31°57' W 080°42'3 6.1
2017-Oct-07 01:00N 31°57' W 080°39'510.4
2017-Oct-07 00:30N 31°58' W 080°32'712.9
2017-Oct-07 00:00N 31°58' W 080°25'  
Track history (hours):
 
Tides and Currents Weather Stations Pressure Air Temp Water Temp Dewpoint Dewpoint Depression Visibility Wind Speed Wind Dir Waves Ship Positions

High Glow

Last reported at 2017-Oct-16 02:02 UTC. Time now 2017-Oct-17 15:17 UTC.
Position N 29°43' W 095°14'.

Length 180 m; draft 7.6 m.

Type: Ship. MMSI: 371179000.

Date/timePositionNaut miles runAvg speedWind from/ knotsBaromVisibWave heightAir tempDewpointWater temp
2017-Oct-16 02:02N 29°43' W 095°14'0 0.0
2017-Oct-16 02:00N 29°43' W 095°14'1 1.2
2017-Oct-16 01:29N 29°43' W 095°14'2 4.4
2017-Oct-16 01:00N 29°44' W 095°12'3 6.1
2017-Oct-16 00:30N 29°44' W 095°09'3 7.0
2017-Oct-16 00:01N 29°46' W 095°05'4 8.4
2017-Oct-15 23:30N 29°43' W 095°01'4 8.8
2017-Oct-15 23:00N 29°40' W 094°58'611.6
2017-Oct-15 22:30N 29°34' W 094°56'612.1
2017-Oct-15 22:00N 29°29' W 094°52'612.4
2017-Oct-15 21:30N 29°24' W 094°49'  
2017-Oct-11 00:00N 25°34' W 079°29'813.7
2017-Oct-10 23:25N 25°42' W 079°28'613.7
2017-Oct-10 23:00N 25°48' W 079°28'713.9
2017-Oct-10 22:30N 25°55' W 079°28'714.2
2017-Oct-10 22:00N 26°02' W 079°28'714.0
2017-Oct-10 21:30N 26°09' W 079°26'714.1
2017-Oct-10 21:00N 26°16' W 079°26'  
2017-Oct-08 07:04N 31°22' W 079°46'412.0
2017-Oct-08 06:44N 31°25' W 079°48'313.3
2017-Oct-08 06:30N 31°28' W 079°50'713.3
2017-Oct-08 05:57N 31°34' W 079°55'913.7
2017-Oct-08 05:18N 31°38' W 080°05'714.0
2017-Oct-08 04:46N 31°41' W 080°12'414.1
2017-Oct-08 04:30N 31°43' W 080°16'714.0
2017-Oct-08 04:00N 31°47' W 080°23'713.9
2017-Oct-08 03:30N 31°51' W 080°30'713.8
2017-Oct-08 03:00N 31°55' W 080°36'612.4
2017-Oct-08 02:30N 31°57' W 080°43'611.1
2017-Oct-08 02:00N 32°01' W 080°48'510.8
2017-Oct-08 01:30N 32°02' W 080°54'510.1
2017-Oct-08 01:00N 32°05' W 080°59'3 6.6
2017-Oct-08 00:30N 32°05' W 081°03'3 6.2
2017-Oct-08 00:00N 32°06' W 081°07'0 0.6
2017-Oct-07 23:30N 32°06' W 081°07'1 1.3
2017-Oct-07 23:00N 32°06' W 081°06'0 0.0
2017-Oct-07 22:30N 32°06' W 081°06'0 0.0
2017-Oct-07 21:58N 32°06' W 081°06'0 0.0
2017-Oct-07 21:22N 32°06' W 081°06'0 0.0
2017-Oct-07 20:58N 32°06' W 081°06'0 0.0
2017-Oct-07 20:28N 32°06' W 081°06'0 0.0
2017-Oct-07 19:46N 32°06' W 081°06'0 0.0
2017-Oct-07 19:28N 32°06' W 081°06'0 0.0
2017-Oct-07 18:58N 32°06' W 081°06'0 0.0
2017-Oct-07 18:28N 32°06' W 081°06'0 0.0
2017-Oct-07 17:58N 32°06' W 081°06'0 0.0
2017-Oct-07 17:22N 32°06' W 081°06'0 0.0
2017-Oct-07 16:58N 32°06' W 081°06'0 0.0
2017-Oct-07 16:22N 32°06' W 081°06'0 0.0
2017-Oct-07 15:58N 32°06' W 081°06'0 0.0
2017-Oct-07 15:28N 32°06' W 081°06'0 0.0
2017-Oct-07 14:58N 32°06' W 081°06'0 0.0
2017-Oct-07 14:28N 32°06' W 081°06'0 0.0
2017-Oct-07 13:58N 32°06' W 081°06'0 0.0
2017-Oct-07 13:22N 32°06' W 081°06'0 0.0
2017-Oct-07 12:58N 32°06' W 081°06'0 0.0
2017-Oct-07 12:04N 32°06' W 081°06'0 0.0
2017-Oct-07 11:58N 32°06' W 081°06'0 0.0
2017-Oct-07 11:28N 32°06' W 081°06'0 0.0
2017-Oct-07 10:58N 32°06' W 081°06'0 0.0
2017-Oct-07 10:28N 32°06' W 081°06'0 0.0
2017-Oct-07 09:52N 32°06' W 081°06'0 0.0
2017-Oct-07 09:22N 32°06' W 081°06'0 0.0
2017-Oct-07 08:58N 32°06' W 081°06'0 0.0
2017-Oct-07 08:28N 32°06' W 081°06'0 0.0
2017-Oct-07 07:58N 32°06' W 081°06'0 0.0
2017-Oct-07 07:28N 32°06' W 081°06'0 0.0
2017-Oct-07 06:58N 32°06' W 081°06'0 0.0
2017-Oct-07 06:28N 32°06' W 081°06'0 0.0
2017-Oct-07 05:58N 32°06' W 081°06'0 0.0
2017-Oct-07 05:22N 32°06' W 081°06'0 0.0
2017-Oct-07 04:58N 32°06' W 081°06'0 0.0
2017-Oct-07 04:28N 32°06' W 081°06'0 0.0
2017-Oct-07 03:58N 32°06' W 081°06'2 3.4
2017-Oct-07 03:30N 32°05' W 081°05'4 7.3
2017-Oct-07 03:00N 32°06' W 081°01'611.7
2017-Oct-07 02:30N 32°02' W 080°55'612.3
2017-Oct-07 02:00N 32°01' W 080°48'612.5
2017-Oct-07 01:30N 31°57' W 080°42'3 6.1
2017-Oct-07 01:00N 31°57' W 080°39'510.4
2017-Oct-07 00:30N 31°58' W 080°32'712.9
2017-Oct-07 00:00N 31°58' W 080°25'  

Dump ship's entire track history